PAYLOAD C

Satellite information

Favourite Embed

Satellite Type and Status

PAYLOADIN ORBIT

Key statistics

Satellite PAYLOAD C at a glance.

Uptime

4484

Days in orbit

Revolutions

≈ 14.7

Per day

Orbit

SSO

Sun Synchronous Orbit

Inclination

98.1

Latest

Satellite identification and parameters

Extended collection of information and parameters for PAYLOAD C.

Object identification

Identified? True

Debris? False

Object name: PAYLOAD C

International designator: 2013-037C

Object number (NORAD): 39210

Object ID (CCSDS): 39210

Country: PEOPLES REPUBLIC OF CHINA (PRC)

Current information (Y/N): Y

RCS size: LARGE

Orbital parameters

Period: 97.89 minutes

Inclination: 98.1011 deg

SMA: 7035.902 km

Apoapsis: 662.363 km

Periapsis: 653.172 km

RAAN: 299.0871 deg

Eccentricy: 0.0006532

Argument of periapsis: 158.2382 deg

Mean anomaly: 201.9103 deg

Mean motion: 14.7103514 rev/day

Mean motion (dot): 0.00001137 rev/day2

B* drag term: 0.0001932244 1/REarth

Two-line elements (TLE)

Creation date: Oct. 27, 2025, 2:46 a.m.

Reference frame: TEME

Reference center: EARTH

Epoch: Oct. 26, 2025, 11:07 p.m. UTC

TLE line 0: 0 PAYLOAD C

TLE line 1: 1 39210U 13037C 25299.96352361 .00001137 00000-0 19322-3 0 9993

TLE line 2: 2 39210 98.1011 299.0871 0006532 158.2382 201.9103 14.71035140660035

Live tracking on map

Real-time ground track for satellite PAYLOAD C.

In-orbit conjunctions

There are no conjunctions computed for PAYLOAD C, at the moment. Check back to stay up to date, as we update our databases every day.

Go to all conjunctions

Associated space launch

PAYLOAD C was lifted into orbit during the mission ‘Long March 4C | Shijian 15, Shiyan 7 & ChuangXin 3’, on board a Long March 4C space rocket.

The launch took place on July 19, 2013, 11:37 p.m. from Launch Complex 9.

For more information about the launch, click the button.

Launch to space Long March 4C | Shijian 15, Shiyan 7 & ChuangXin 3
Long March 4C | Shijian 15, Shiyan 7 & ChuangXin 3

Agency: N/A

Status: Launch Successful

Launch date: July 19, 2013, 11:37 p.m. UTC

Rocket: Long March 4C

Launch pad: Launch Complex 9

Location: Taiyuan Satellite Launch Center, People's Republic of China

...

Latest news about this satellite

There are no fresh news available about this satellite. Check back as we update our databases every day.


Newsletter sign-up

Weekly statistics, charts and insights to help you stay on top of the space industry.